Ely, MN

10:23 PM CDT on July 20, 2017 (GMT -0500)
Ely Municipal

Weather History for KELO - December, 2012

Change the Weather History Date:

Saturday, December 8, 2012

  Actual Average Record
Temperature  
Mean Temperature 10 °F -  
Max Temperature 21 °F 26 °F 42 °F (2015)
Min Temperature -2 °F 12 °F -32 °F (2013)
Degree Days  
Heating Degree Days 56    
Moisture  
Dew Point 6 °F    
Average Humidity 81    
Maximum Humidity 93    
Minimum Humidity 63    
Precipitation  
Precipitation 0.00 in - - ()
Sea Level Pressure  
Sea Level Pressure 30.03 in    
Wind  
Wind Speed 0 mph (ESE)    
Max Wind Speed 6 mph    
Max Gust Speed -    
Visibility 10 miles    
Events Snow    
Averages and records for this station are not official NWS values.
T = Trace of Precipitation, MM = Missing Value Source: NWS Daily Summary

Daily Weather History Graph

Daily Weather History Graph

Search for Another Location

Airport or City:

Trip Planner

Search our weather history database for the weather conditions in past years. The results will help you decide how hot, cold, wet, or windy it might be!

Date:

Astronomy

Dec. 08, 2012 Rise Set
Actual Time 7:43 AM CST 4:14 PM CST
Civil Twilight 7:08 AM CST 4:50 PM CST
Nautical Twilight 6:28 AM CST 5:30 PM CST
Astronomical Twilight 5:51 AM CST 6:07 PM CST
Moon 1:49 AM CST (12/8) 1:02 PM CST (12/8)
Length of Visible Light 9h 42m
Length of Day
8h 31m
Waning Crescent, 28% of the Moon is Illuminated
Dec 8
Waning Crescent
Dec 13
New
Dec 19
First Quarter
Dec 28
Full
Jan 4
Last Quarter

Hourly Weather History & Observations

Time (CST) Temp. Windchill Dew Point Humidity Pressure Visibility Wind Dir Wind Speed Gust Speed Precip Events Conditions
12:12 AM 3.2 °F - -0.4 °F 85% 30.03 in 10.0 mi Calm Calm - N/A   Clear
12:33 AM 1.4 °F - -0.4 °F 92% 30.02 in 10.0 mi Calm Calm - N/A   Clear
12:53 AM 1.4 °F - -0.4 °F 92% 30.02 in 10.0 mi Calm Calm - N/A   Clear
1:13 AM 1.4 °F - -0.4 °F 92% 30.02 in 10.0 mi Calm Calm - N/A   Clear
1:33 AM 3.2 °F - -0.4 °F 85% 30.02 in 10.0 mi Calm Calm - N/A   Clear
1:53 AM 1.4 °F - -0.4 °F 92% 30.02 in 10.0 mi Calm Calm - N/A   Clear
2:12 AM 1.4 °F - -2.2 °F 85% 30.02 in 10.0 mi Calm Calm - N/A   Clear
2:33 AM -0.4 °F - -2.2 °F 92% 30.03 in 10.0 mi Calm Calm - N/A   Clear
2:53 AM -0.4 °F - -2.2 °F 92% 30.02 in 10.0 mi Calm Calm - N/A   Clear
3:12 AM -0.4 °F - -2.2 °F 92% 30.02 in 10.0 mi Calm Calm - N/A   Clear
3:33 AM -0.4 °F - -4.0 °F 85% 30.02 in 10.0 mi Calm Calm - N/A   Clear
3:53 AM -0.4 °F - -4.0 °F 85% 30.02 in 10.0 mi Calm Calm - N/A   Clear
4:12 AM -0.4 °F - -4.0 °F 85% 30.02 in 10.0 mi Calm Calm - N/A   Clear
4:33 AM -0.4 °F - -4.0 °F 85% 30.02 in 10.0 mi Calm Calm - N/A   Clear
4:48 AM -2.2 °F - -5.8 °F 85% 30.02 in 10.0 mi Calm Calm - N/A   Clear
5:13 AM -2.2 °F - -5.8 °F 85% 30.01 in 10.0 mi Calm Calm - N/A   Clear
5:33 AM -2.2 °F - -5.8 °F 85% 30.02 in 10.0 mi Calm Calm - N/A   Clear
5:53 AM -2.2 °F - -5.8 °F 85% 30.02 in 10.0 mi Calm Calm - N/A   Clear
6:12 AM -2.2 °F - -5.8 °F 85% 30.02 in 10.0 mi Calm Calm - N/A   Clear
6:33 AM -2.2 °F - -5.8 °F 85% 30.02 in 10.0 mi Calm Calm - N/A   Clear
6:53 AM -2.2 °F - -5.8 °F 85% 30.02 in 10.0 mi Calm Calm - N/A   Scattered Clouds
7:12 AM -2.2 °F - -5.8 °F 85% 30.02 in 10.0 mi Calm Calm - N/A   Scattered Clouds
7:33 AM -0.4 °F - -4.0 °F 85% 30.02 in 10.0 mi Calm Calm - N/A   Mostly Cloudy
7:53 AM -0.4 °F - -4.0 °F 85% 30.02 in 10.0 mi Calm Calm - N/A   Overcast
8:12 AM 1.4 °F - -2.2 °F 85% 30.03 in 10.0 mi Calm Calm - N/A   Overcast
8:33 AM 3.2 °F - -0.4 °F 85% 30.03 in 10.0 mi Calm Calm - N/A   Overcast
8:53 AM 5.0 °F - 1.4 °F 85% 30.03 in 10.0 mi Calm Calm - N/A   Overcast
9:12 AM 6.8 °F - 3.2 °F 85% 30.03 in 10.0 mi Calm Calm - N/A   Overcast
9:33 AM 8.6 °F - 3.2 °F 79% 30.03 in 10.0 mi Calm Calm - N/A   Overcast
9:53 AM 8.6 °F - 6.8 °F 92% 30.03 in 10.0 mi Calm Calm - N/A   Overcast
10:12 AM 10.4 °F - 6.8 °F 85% 30.03 in 10.0 mi Calm Calm - N/A   Mostly Cloudy
10:33 AM 10.4 °F 4.0 °F 6.8 °F 85% 30.03 in 10.0 mi SE 3.5 mph - N/A   Overcast
10:52 AM 12.2 °F - 6.8 °F 79% 30.03 in 10.0 mi Calm Calm - N/A   Overcast
11:13 AM 12.2 °F - 8.6 °F 85% 30.03 in 10.0 mi Calm Calm - N/A   Overcast
11:33 AM 14.0 °F - 8.6 °F 79% 30.02 in 10.0 mi Calm Calm - N/A   Overcast
11:52 AM 14.0 °F - 6.8 °F 73% 30.02 in 10.0 mi Calm Calm - N/A   Overcast
12:13 PM 14.0 °F - 6.8 °F 73% 30.02 in 10.0 mi Calm Calm - N/A   Overcast
12:33 PM 15.8 °F - 6.8 °F 68% 30.01 in 10.0 mi Calm Calm - N/A   Overcast
12:52 PM 15.8 °F 10.2 °F 6.8 °F 68% 30.00 in 10.0 mi East 3.5 mph - N/A   Overcast
1:13 PM 17.6 °F 12.3 °F 6.8 °F 63% 30.00 in 10.0 mi SE 3.5 mph - N/A   Overcast
1:33 PM 17.6 °F - 6.8 °F 63% 29.99 in 10.0 mi Calm Calm - N/A   Overcast
1:52 PM 19.4 °F - 8.6 °F 63% 30.00 in 10.0 mi Calm Calm - N/A   Overcast
2:13 PM 19.4 °F - 8.6 °F 63% 29.99 in 10.0 mi Calm Calm - N/A   Overcast
2:33 PM 19.4 °F - 8.6 °F 63% 29.99 in 10.0 mi Calm Calm - N/A   Overcast
2:52 PM 19.4 °F - 10.4 °F 68% 30.00 in 10.0 mi Calm Calm - N/A   Overcast
3:13 PM 19.4 °F - 10.4 °F 68% 30.00 in 10.0 mi Calm Calm - N/A   Overcast
3:33 PM 19.4 °F - 10.4 °F 68% 30.00 in 10.0 mi Calm Calm - N/A   Overcast
3:52 PM 19.4 °F - 10.4 °F 68% 30.01 in 10.0 mi Calm Calm - N/A   Overcast
4:13 PM 19.4 °F - 10.4 °F 68% 30.01 in 10.0 mi Calm Calm - N/A   Overcast
4:33 PM 19.4 °F - 10.4 °F 68% 30.02 in 10.0 mi Calm Calm - N/A   Overcast
4:52 PM 19.4 °F - 10.4 °F 68% 30.02 in 10.0 mi Calm Calm - N/A Snow Light Snow
5:13 PM 19.4 °F 14.3 °F 12.2 °F 74% 30.03 in 10.0 mi East 3.5 mph - N/A   Overcast
5:32 PM 19.4 °F - 12.2 °F 74% 30.02 in 10.0 mi Calm Calm - N/A Snow Light Snow
5:53 PM 19.4 °F 14.3 °F 12.2 °F 74% 30.02 in 10.0 mi NE 3.5 mph - N/A   Overcast
6:13 PM 19.4 °F - 12.2 °F 74% 30.02 in 10.0 mi Calm Calm - N/A   Overcast
6:33 PM 19.4 °F - 12.2 °F 74% 30.03 in 10.0 mi Calm Calm - N/A   Overcast
6:53 PM 19.4 °F - 12.2 °F 74% 30.03 in 10.0 mi Calm Calm - N/A   Overcast
7:13 PM 21.2 °F - 12.2 °F 68% 30.03 in 10.0 mi Calm Calm - N/A   Overcast
7:33 PM 21.2 °F - 12.2 °F 68% 30.04 in 10.0 mi Calm Calm - N/A   Overcast
7:53 PM 21.2 °F 13.6 °F 17.6 °F 86% 30.04 in 10.0 mi SSE 5.8 mph - N/A   Overcast
8:13 PM 21.2 °F 16.4 °F 17.6 °F 86% 30.04 in 10.0 mi South 3.5 mph - N/A   Overcast
8:32 PM 21.2 °F - 17.6 °F 86% 30.04 in 10.0 mi Calm Calm - N/A   Overcast
8:53 PM 21.2 °F 16.4 °F 19.4 °F 93% 30.05 in 10.0 mi SSE 3.5 mph - N/A   Overcast
9:12 PM 21.2 °F - 19.4 °F 93% 30.06 in 10.0 mi Calm Calm - N/A   Overcast
9:33 PM 21.2 °F 16.4 °F 19.4 °F 93% 30.06 in 10.0 mi SE 3.5 mph - N/A Snow Light Snow
9:53 PM 21.2 °F - 19.4 °F 93% 30.07 in 7.0 mi Calm Calm - N/A Snow Light Snow
10:13 PM 21.2 °F 16.4 °F 19.4 °F 93% 30.07 in 5.0 mi ESE 3.5 mph - N/A Snow Light Snow
10:33 PM 21.2 °F - 19.4 °F 93% 30.07 in 4.0 mi Calm Calm - N/A Snow Light Snow
10:53 PM 21.2 °F - 19.4 °F 93% 30.06 in 5.0 mi Calm Calm - N/A Snow Light Snow
11:13 PM 21.2 °F - 19.4 °F 93% 30.06 in 5.0 mi Calm Calm - N/A Snow Light Snow
11:33 PM 21.2 °F - 19.4 °F 93% 30.07 in 10.0 mi Calm Calm - N/A Snow Light Snow
11:52 PM 21.2 °F - 19.4 °F 93% 30.06 in 10.0 mi Calm Calm - N/A   Overcast